Terminal Aerodrome Forecast
Issued by NWS Anchorage, AK

Home | Current Version | Previous Version | Text Only | Print | Product List | Glossary On
Versions: 1 2 3 4 5 6 7 8 9 10 11 12 13 14 15 16 17 18 19 20 21 22 23 24 25 26 27 28 29 30 31 32 33 34 35 36 37 38 39 40 41 42 43 44 45
000
FTAK31 PANC 291134
TAFANC
TAF
PANC 291134Z 2912/3018 VRB03KT P6SM -RA FEW005 OVC060
      TEMPO 2912/2914 6SM -RA BKN030
     FM291500 VRB02KT 6SM -RA BR FEW010 SCT025 BKN060
     FM292100 32004KT P6SM VCSH SCT030 BKN060
     FM300000 32007KT P6SM FEW030 SCT050=

USA.gov is the U.S. government's official web portal to all federal, state and local government web resources and services.